TimeEDT,TemperatureF,Dew PointF,Humidity,Sea Level PressureIn,VisibilityMPH,Wind Direction,Wind SpeedMPH,Gust SpeedMPH,PrecipitationIn,Events,Conditions,WindDirDegrees,DateUTC
12:53 AM,78.1,68.0,71,29.88,10.0,North,9.2,-,N/A,,Partly Cloudy,350,2011-10-02 04:53:00
1:53 AM,77.0,66.9,71,29.88,10.0,North,10.4,-,N/A,,Partly Cloudy,360,2011-10-02 05:53:00
2:53 AM,77.0,66.9,71,29.88,10.0,North,9.2,-,N/A,,Scattered Clouds,350,2011-10-02 06:53:00
3:53 AM,75.9,66.0,71,29.88,10.0,North,8.1,-,N/A,,Partly Cloudy,350,2011-10-02 07:53:00
4:53 AM,75.9,66.0,71,29.88,10.0,North,9.2,-,N/A,,Mostly Cloudy,350,2011-10-02 08:53:00
5:53 AM,73.9,64.9,73,29.90,10.0,North,8.1,-,N/A,,Partly Cloudy,350,2011-10-02 09:53:00
6:53 AM,73.9,64.9,73,29.91,10.0,North,8.1,-,N/A,,Scattered Clouds,350,2011-10-02 10:53:00
7:53 AM,73.9,64.9,73,29.93,10.0,North,6.9,-,N/A,,Mostly Cloudy,350,2011-10-02 11:53:00
8:53 AM,75.0,66.0,73,29.94,10.0,North,5.8,-,N/A,,Scattered Clouds,350,2011-10-02 12:53:00
9:53 AM,81.0,66.9,62,29.95,10.0,North,8.1,-,N/A,,Mostly Cloudy,350,2011-10-02 13:53:00
10:53 AM,84.9,66.9,55,29.96,10.0,ENE,12.7,-,N/A,,Mostly Cloudy,60,2011-10-02 14:53:00
11:53 AM,84.9,66.0,53,29.98,10.0,ENE,9.2,19.6,N/A,,Mostly Cloudy,70,2011-10-02 15:53:00
12:53 PM,84.9,66.0,53,29.96,10.0,East,11.5,-,N/A,,Scattered Clouds,80,2011-10-02 16:53:00
1:53 PM,84.9,66.0,53,29.94,10.0,ENE,11.5,18.4,N/A,,Partly Cloudy,70,2011-10-02 17:53:00
2:53 PM,84.9,66.9,55,29.94,10.0,East,12.7,20.7,N/A,,Scattered Clouds,90,2011-10-02 18:53:00
3:53 PM,84.0,66.9,56,29.93,10.0,East,12.7,-,N/A,,Partly Cloudy,80,2011-10-02 19:53:00
4:53 PM,82.9,66.9,58,29.93,10.0,ENE,9.2,-,N/A,,Partly Cloudy,70,2011-10-02 20:53:00
5:53 PM,82.9,66.9,58,29.93,10.0,ENE,10.4,-,N/A,,Scattered Clouds,60,2011-10-02 21:53:00
6:53 PM,81.0,66.9,62,29.95,10.0,East,11.5,19.6,N/A,,Scattered Clouds,80,2011-10-02 22:53:00
7:53 PM,80.1,66.9,64,29.96,10.0,ENE,10.4,-,N/A,,Scattered Clouds,70,2011-10-02 23:53:00
8:53 PM,80.1,66.9,64,29.98,10.0,ENE,9.2,-,N/A,,Scattered Clouds,70,2011-10-03 00:53:00
9:53 PM,80.1,66.9,64,30.00,10.0,East,9.2,-,N/A,,Partly Cloudy,80,2011-10-03 01:53:00
10:53 PM,80.1,66.9,64,30.01,10.0,ENE,8.1,-,N/A,,Scattered Clouds,70,2011-10-03 02:53:00
11:53 PM,81.0,66.9,62,30.00,10.0,East,8.1,-,N/A,,Mostly Cloudy,90,2011-10-03 03:53:00